Theta_e
324 324 323 324 323 322 322 321 320 317 317 317 317 318 317 315 310 305 306 307 309 312 312 313 312 313 313 313 312 314 314 314 316 315 313 314 315 312 310 311 311 311 310 310 309 307 307 307 307 310 311 312 314 313 311 310 309 308 311 314 313 312 311 309 308 314 312 312 309 308 308 308 308 308
324 324 323 324 323 322 321 321 321 317 316 316 316 317 318 317 313 309 308 308 308 310 308 312 312 309 311 312 311 313 313 313 315 313 312 312 313 309 309 309 307 307 308 307 306 304 305 307 308 311 311 312 311 309 309 307 307 307 311 312 314 311 312 310 310 313 312 311 308 308 307 308 307 308
324 323 323 323 323 321 322 321 321 319 316 316 315 315 315 315 316 311 310 307 309 310 309 309 308 309 310 311 312 311 312 312 314 312 312 311 310 310 311 308 308 307 307 304 305 306 305 305 306 307 310 311 311 310 311 309 308 310 312 311 311 311 312 312 311 312 313 312 310 309 308 307 308 308
324 324 322 322 322 321 322 321 321 320 317 316 315 315 314 314 313 313 310 309 310 308 310 310 308 308 309 310 310 311 311 311 313 312 311 310 310 312 314 308 308 308 306 305 306 310 308 304 306 307 308 309 310 311 312 310 310 310 308 307 309 310 311 312 311 312 312 313 312 311 309 308 307 307
324 324 323 322 322 321 322 322 321 321 319 317 316 315 314 313 312 312 311 310 308 305 307 309 307 306 309 308 310 310 310 310 312 311 310 310 311 311 312 312 307 306 305 304 303 303 303 303 307 308 306 307 307 308 308 308 308 306 304 304 305 306 310 311 311 312 313 314 313 312 310 308 307 306
324 324 323 322 321 321 322 321 321 321 320 318 315 314 313 312 311 312 311 310 310 308 305 306 305 306 308 308 308 310 309 310 311 311 310 309 309 309 310 310 310 305 304 303 302 302 302 301 302 302 301 301 302 303 303 303 303 305 304 300 301 306 309 311 310 310 312 313 313 312 309 308 307 306
324 323 323 322 321 320 321 321 322 322 321 320 317 315 313 312 312 309 312 309 307 307 305 306 304 306 306 309 307 308 310 310 310 310 310 309 308 309 309 309 308 303 302 302 302 301 301 301 300 300 301 301 300 301 302 302 302 302 302 300 300 301 303 305 307 308 310 311 311 311 309 308 307 305
324 323 322 322 321 321 320 320 320 321 322 321 319 317 315 314 312 310 311 310 311 307 306 304 305 305 306 305 305 308 308 308 308 310 311 310 309 309 309 308 308 305 302 302 302 302 302 301 300 300 299 300 301 300 300 301 301 301 302 302 301 300 299 300 302 303 306 309 310 310 308 307 306 306
325 324 323 323 322 321 321 319 320 319 320 320 320 319 317 315 314 312 311 309 308 307 306 306 305 305 304 305 305 307 306 305 306 307 309 309 309 309 309 308 308 306 303 302 302 301 301 301 301 300 300 300 300 300 300 300 301 301 301 302 301 300 299 299 300 301 302 302 304 310 309 307 306 306
326 325 325 324 323 322 322 320 320 319 320 320 319 319 319 318 316 314 312 310 307 307 307 307 305 304 305 304 305 305 306 305 304 304 306 306 307 307 308 308 307 308 308 308 307 304 303 302 301 301 301 300 300 299 300 300 301 301 301 301 301 301 300 299 299 299 300 301 300 303 309 308 306 306
325 326 325 324 323 323 323 322 321 320 319 319 319 319 319 319 317 315 314 310 308 306 306 305 307 306 305 306 305 303 305 304 304 304 303 303 304 306 307 307 307 308 308 305 302 303 304 304 304 302 300 300 301 301 301 301 301 301 300 300 300 300 300 300 299 299 299 300 300 300 301 305 306 306
324 324 324 324 324 324 324 324 322 321 320 319 319 319 319 319 318 316 314 311 309 307 306 306 304 304 305 304 304 301 302 302 301 301 303 303 304 304 305 306 307 308 308 308 307 304 303 302 302 300 301 301 301 301 301 302 302 302 300 299 299 299 299 300 300 300 299 299 299 299 299 299 301 305
323 324 324 324 324 324 323 317 317 318 318 319 318 317 318 318 318 317 316 313 310 308 308 307 305 304 304 305 303 301 302 302 303 304 303 303 304 304 303 304 305 305 306 308 307 307 309 308 309 308 308 307 305 304 302 304 303 302 300 299 299 299 299 299 300 300 300 300 299 299 299 298 299 299
321 322 321 321 321 318 317 315 309 303 305 309 315 313 317 317 315 316 315 313 311 311 308 308 305 304 304 303 304 303 303 306 306 303 302 301 303 304 303 305 307 307 306 306 306 307 309 309 309 309 309 310 311 310 310 308 306 303 300 300 300 300 299 299 299 299 300 299 299 299 298 298 298 297
318 318 318 319 321 320 319 309 298 299 297 295 297 299 303 306 314 314 313 312 310 309 309 308 304 305 304 304 305 305 306 305 306 305 303 303 304 303 302 303 308 309 308 307 306 307 311 310 308 308 309 310 311 310 310 303 302 301 300 300 300 300 299 299 299 299 299 299 299 298 298 298 298 296
317 316 314 314 315 315 315 310 305 301 298 295 295 295 295 294 292 295 309 314 310 308 308 305 304 304 304 304 304 304 306 305 304 305 304 304 304 303 303 303 304 308 306 308 306 308 309 309 309 309 309 310 311 309 305 301 300 300 300 300 299 299 299 299 299 298 298 298 298 297 297 297 297 295
316 314 311 308 308 313 315 311 308 307 304 299 297 298 298 297 295 293 292 295 311 311 309 308 306 304 305 304 304 306 307 307 307 305 304 304 304 305 305 305 304 310 308 308 306 307 310 307 308 308 311 311 310 308 302 300 299 299 299 299 299 298 298 298 298 298 297 297 297 297 297 296 296 295
314 313 311 307 305 306 308 307 309 309 308 307 306 304 303 302 300 297 296 296 299 303 308 308 307 308 306 309 310 308 308 308 307 306 306 305 305 304 305 308 307 309 307 310 308 306 312 307 307 307 311 312 311 310 305 299 298 298 298 298 298 298 298 298 298 298 297 297 297 297 297 296 295 294
307 307 307 306 305 305 305 307 308 309 307 305 303 301 300 301 302 302 301 300 304 308 310 310 310 308 309 310 309 309 310 311 309 309 309 308 309 308 307 308 306 308 307 309 310 309 310 304 306 308 311 313 312 313 305 302 299 298 297 297 297 297 297 297 297 297 297 297 297 296 296 295 294 293
299 300 301 302 302 303 305 302 300 303 306 302 300 299 299 299 300 300 297 294 295 301 303 304 304 303 300 298 303 304 308 310 309 308 308 310 310 312 311 311 306 307 307 308 310 306 306 305 308 310 310 309 311 313 312 303 300 300 299 298 298 297 297 297 297 297 297 297 297 296 295 294 293 293
299 298 298 301 303 304 304 298 296 297 300 302 299 298 298 298 298 299 300 295 294 293 293 293 293 294 294 295 295 294 295 302 306 310 308 306 304 308 308 306 306 309 305 304 306 308 308 309 308 309 311 310 311 313 315 309 299 297 298 298 297 297 296 296 296 297 297 296 296 296 295 294 293 293
298 301 300 300 302 304 303 295 296 296 300 300 298 297 297 297 297 298 300 301 299 295 295 294 294 294 295 296 296 295 296 297 300 307 305 305 304 303 303 305 303 304 304 305 306 308 309 306 305 307 310 307 306 306 305 303 303 298 299 297 296 296 296 296 296 296 296 296 296 296 295 294 294 296
296 295 296 297 298 301 300 295 296 295 299 299 298 298 297 297 297 297 299 300 300 301 301 300 300 299 299 302 302 301 296 297 301 305 305 304 306 303 300 300 301 304 305 307 308 306 307 307 309 306 308 306 310 304 303 306 307 305 303 303 303 296 296 295 296 296 296 296 295 295 295 294 295 297
296 295 295 294 290 291 291 291 292 293 294 298 298 298 297 297 296 297 299 300 300 299 299 299 299 299 300 301 301 301 301 301 301 301 302 303 305 303 301 300 300 302 303 305 305 306 306 306 307 307 307 303 299 307 305 310 307 303 302 303 304 298 296 296 296 295 295 295 295 295 294 294 295 297
295 295 295 295 292 291 291 291 291 291 292 294 298 298 298 298 297 297 299 299 297 299 299 299 299 299 299 299 300 300 300 300 300 300 300 301 303 302 300 300 298 300 302 303 298 305 304 305 304 306 306 305 306 305 306 304 304 300 299 299 300 301 301 300 298 300 295 294 294 294 294 294 294 297
296 296 295 295 292 291 291 291 291 291 292 293 297 294 291 291 293 299 300 300 299 299 298 298 297 297 297 298 298 298 298 299 299 300 300 300 301 301 302 303 301 299 300 302 295 301 301 302 305 303 304 304 304 303 302 304 304 299 298 299 299 300 298 299 299 298 299 299 298 295 296 294 294 295
296 296 295 294 292 291 291 291 291 292 292 293 293 291 291 292 292 295 298 298 298 297 296 296 295 296 297 297 297 297 298 298 298 299 298 298 299 299 298 299 300 300 301 298 298 297 299 300 302 300 300 301 299 300 300 301 303 302 302 301 300 299 298 298 298 298 298 297 298 294 293 293 293 293
296 295 294 292 290 291 291 290 291 291 293 293 291 292 292 293 294 297 296 296 296 294 294 295 294 294 295 296 295 294 295 295 296 296 296 296 296 296 295 294 296 297 296 297 296 294 296 298 299 300 299 299 299 298 298 301 300 300 299 301 300 298 298 297 298 297 297 297 297 297 296 295 295 295
293 291 290 290 291 291 291 291 291 291 291 290 291 292 292 296 297 297 297 296 296 294 293 292 293 293 293 293 293 293 294 293 293 293 294 294 295 294 294 295 296 296 295 295 295 294 293 295 298 298 298 299 300 300 299 298 299 299 298 295 297 299 298 297 297 297 296 296 296 296 295 294 294 294
290 290 291 291 291 292 293 295 294 293 293 291 291 292 294 295 295 296 295 295 293 292 292 291 291 290 291 291 291 291 292 291 289 290 291 292 293 292 292 295 294 294 294 294 295 294 295 295 296 297 299 299 298 297 297 296 296 297 295 295 295 298 295 295 296 296 295 295 295 295 295 296 294 294
293 292 292 291 290 290 290 291 291 292 292 293 294 293 293 293 293 293 293 292 292 291 290 290 289 289 289 290 289 289 289 289 289 289 290 290 290 290 291 291 292 292 294 295 294 294 294 294 295 296 296 297 297 296 295 295 296 295 296 296 294 293 296 294 294 295 295 295 296 296 295 295 294 295
295 294 292 293 294 294 293 293 292 292 292 291 291 292 291 291 291 292 291 291 289 289 289 288 288 288 288 287 287 289 288 288 288 288 288 288 289 288 290 290 289 290 292 293 294 294 292 294 294 295 296 295 294 295 295 295 295 294 294 295 294 295 295 295 295 295 295 295 295 294 294 294 293 294
293 293 292 291 291 291 289 288 290 290 289 288 289 290 290 289 289 289 289 287 287 287 287 286 286 286 287 286 286 287 287 287 287 287 288 288 287 288 289 288 287 288 289 290 291 292 292 293 293 293 295 295 295 294 294 292 293 294 293 293 294 295 295 296 295 294 294 294 293 293 292 292 293 294
290 289 288 288 288 288 288 288 287 287 287 287 287 286 287 287 287 287 286 286 286 286 285 286 285 285 286 285 286 286 286 287 287 286 286 286 287 287 287 288 288 288 288 289 289 289 290 291 293 294 294 294 295 294 295 293 293 294 293 294 294 294 295 295 294 293 293 293 292 290 290 290 291 292
288 288 287 287 287 287 288 287 287 286 286 286 286 286 286 286 286 286 285 285 285 285 285 284 284 284 285 284 285 285 285 285 286 287 287 287 287 286 287 287 287 288 288 289 289 290 289 290 292 293 293 293 293 294 294 295 294 293 294 294 294 294 294 295 294 294 294 293 293 289 289 289 290 292
287 287 287 287 287 287 287 286 286 286 286 286 286 286 286 285 285 285 285 285 286 285 285 284 283 283 284 284 284 284 284 284 286 286 286 285 285 286 287 286 287 287 288 288 288 290 290 290 290 289 288 288 288 288 289 293 293 293 292 291 293 292 293 293 293 294 294 294 293 292 289 289 292 292
287 287 287 287 287 287 286 286 286 286 286 286 286 286 285 284 285 285 285 284 285 284 284 284 283 283 283 283 284 283 283 284 284 284 285 286 286 286 286 285 285 287 288 289 289 289 290 289 289 290 289 287 286 286 288 290 290 292 294 292 291 293 292 291 291 291 291 292 291 290 290 288 289 290
286 287 287 286 286 286 286 286 286 286 285 285 285 285 285 285 285 285 286 286 284 284 284 284 283 284 284 283 284 284 284 283 284 284 284 285 285 285 286 286 286 287 288 289 289 289 289 289 289 288 288 286 286 286 286 289 290 291 291 293 291 291 293 293 291 290 291 292 290 289 289 288 288 289
287 286 286 286 286 286 286 286 286 286 286 286 285 285 285 285 285 285 284 284 285 285 285 284 283 282 283 283 283 283 284 284 284 284 284 284 285 285 285 286 287 288 288 288 290 290 290 290 289 288 287 287 286 287 288 287 288 291 290 289 292 291 291 290 291 292 292 289 291 290 289 289 290 288
286 286 286 286 286 286 286 286 286 286 286 286 286 286 286 285 285 285 285 284 284 283 283 282 282 283 282 282 282 283 283 283 283 284 284 284 284 285 286 285 286 286 286 287 287 289 289 290 290 289 289 289 289 289 289 288 288 290 290 290 289 292 290 290 290 290 289 289 288 288 289 289 289 291
286 286 286 286 286 286 286 286 286 286 286 286 286 285 285 286 285 284 284 283 283 284 283 281 280 281 282 282 281 283 283 282 281 281 282 283 283 284 284 284 286 286 285 285 286 287 289 291 289 284 286 288 286 286 287 288 288 289 289 291 290 289 289 290 293 290 289 288 288 288 288 287 287 288
286 286 286 286 286 286 286 286 286 286 286 286 286 285 285 284 284 283 282 281 281 279 280 280 279 280 280 279 280 280 282 281 281 281 281 282 283 283 282 284 285 285 285 285 286 287 290 290 288 288 288 287 289 289 287 286 287 288 289 289 290 289 288 288 289 289 291 289 289 287 287 287 287 287
286 286 286 286 286 286 286 286 286 285 285 285 284 284 283 283 283 283 282 282 279 280 280 279 277 277 278 278 277 279 280 280 279 280 281 281 281 282 284 284 284 284 285 285 287 286 287 288 288 287 288 290 288 288 287 287 287 287 288 288 289 290 291 289 288 288 288 288 288 288 289 288 287 285
286 286 286 286 286 286 286 286 286 285 285 284 283 283 284 284 284 280 280 280 280 280 278 280 279 279 280 279 278 279 282 282 281 282 283 283 282 282 283 284 284 285 286 286 287 288 288 288 288 287 289 288 288 288 287 287 288 288 288 288 289 289 290 291 291 289 288 287 287 287 287 288 288 287
287 286 286 286 286 285 286 286 286 286 285 283 284 283 282 282 281 279 279 278 280 279 280 280 281 281 281 281 284 285 284 284 283 283 283 284 284 284 283 284 285 286 287 286 286 287 288 288 289 289 288 288 288 287 287 287 288 288 288 288 288 289 289 289 290 290 290 290 288 286 286 286 287 286
Wind_Speed
8 7 8 7 6 6 6 5 5 6 5 6 8 8 9 8 8 6 6 7 7 5 5 4 4 5 5 5 3 4 4 4 6 4 4 5 5 7 10 9 9 9 8 7 7 7 7 7 7 6 6 5 4 4 5 4 4 4 3 2 2 2 2 2 2 1 2 4 5 5 4 3 3 2
7 7 7 6 6 5 6 7 6 6 7 7 7 7 6 7 9 7 8 7 6 4 4 4 4 4 5 5 5 4 4 4 6 4 4 4 5 8 9 9 9 9 9 8 8 8 8 8 7 7 7 6 6 5 4 4 4 4 4 4 3 3 2 2 2 2 2 3 4 4 3 2 2 2
7 7 8 7 6 6 7 6 6 6 6 7 6 6 5 6 6 9 5 4 5 4 6 6 3 5 5 5 5 4 4 5 6 5 5 4 6 8 8 10 10 10 10 9 8 8 8 9 9 8 8 7 6 5 5 5 5 6 6 5 4 4 4 4 3 5 5 4 3 3 3 2 3 2
7 8 8 8 7 6 6 6 6 7 6 6 6 6 6 6 5 6 6 6 4 6 5 5 5 5 6 6 7 5 4 4 8 5 4 4 4 5 5 8 10 10 10 9 8 9 9 9 9 8 8 7 7 6 6 7 8 8 8 7 6 6 5 5 5 7 7 7 6 5 4 3 3 3
7 7 8 8 7 7 7 7 6 6 7 6 6 5 5 6 5 6 6 6 3 0 0 3 5 4 6 4 5 6 5 5 5 5 4 4 4 4 5 5 9 10 10 10 9 9 9 9 8 8 8 8 8 7 8 9 10 11 10 10 9 8 8 8 8 8 8 8 8 6 6 6 6 6
6 7 8 7 7 8 8 7 7 7 6 6 6 6 6 7 6 5 6 5 5 5 2 3 2 4 4 5 5 7 8 7 5 6 5 4 4 5 4 4 5 9 10 10 10 9 9 8 8 8 8 8 8 9 9 10 12 12 12 12 11 11 10 10 10 9 10 9 8 8 8 7 8 8
7 7 8 8 6 4 6 7 7 7 7 6 7 7 7 7 6 4 3 5 5 6 5 3 4 5 5 7 6 7 5 4 5 6 7 6 4 4 4 4 4 7 10 11 10 10 9 9 9 9 9 9 10 10 10 11 12 12 12 12 12 12 12 12 12 11 11 11 10 10 9 9 10 10
8 8 8 7 7 8 7 6 6 6 6 7 6 8 8 7 7 7 7 5 5 5 5 5 6 4 6 5 2 4 4 5 5 5 3 4 5 5 5 5 5 7 9 10 11 11 11 10 10 11 10 10 11 12 12 12 12 13 13 13 13 13 13 13 13 13 12 13 12 12 11 12 12 12
8 8 8 7 7 7 7 6 6 6 8 6 6 8 7 7 7 6 7 6 5 5 6 5 2 3 2 1 2 5 6 4 4 3 5 5 5 5 5 5 6 8 11 11 12 12 12 12 12 12 12 13 14 14 14 14 14 14 15 15 15 15 14 14 14 14 14 14 14 14 14 13 14 13
8 8 8 7 8 7 8 8 7 7 8 7 7 7 7 8 6 7 6 5 5 6 6 5 4 3 5 3 3 4 5 5 5 4 3 3 4 5 6 6 5 5 5 5 7 9 11 13 13 13 14 15 15 15 15 15 15 15 16 16 16 16 16 15 15 16 15 15 15 15 15 14 15 15
7 7 7 6 7 8 8 8 9 8 8 7 9 9 9 7 7 7 7 6 7 6 6 4 4 4 2 3 5 3 5 3 3 5 4 6 5 5 6 7 5 5 6 8 11 10 9 9 9 12 15 16 16 17 16 16 17 17 17 17 17 17 16 16 16 16 16 16 16 16 16 15 15 16
7 7 8 8 8 8 8 8 8 9 9 7 8 7 7 7 8 7 6 7 7 7 6 6 5 4 4 2 1 3 4 4 3 5 6 8 7 9 7 7 6 3 5 6 6 7 8 9 11 12 13 15 16 17 16 18 17 18 18 18 17 16 16 16 16 16 16 16 17 17 16 15 14 14
7 6 6 6 6 7 7 8 8 12 9 7 8 7 7 7 8 7 5 6 7 5 5 5 3 4 4 4 5 6 6 9 11 6 7 8 7 1 3 6 4 6 5 5 4 6 6 6 6 5 6 9 13 14 18 15 17 17 15 15 15 16 16 17 17 18 18 18 18 17 16 15 14 14
6 6 5 5 7 8 9 11 1 12 9 6 5 4 5 7 8 7 7 5 5 6 7 6 6 5 6 7 9 8 9 6 4 6 7 9 4 2 4 6 5 4 5 5 7 7 4 6 7 5 7 8 7 6 5 7 9 11 15 16 17 18 18 18 18 18 18 18 18 17 16 15 16 16
7 5 5 5 6 7 5 8 12 9 9 11 11 8 4 3 0 4 6 8 7 7 6 5 5 7 8 9 7 8 4 4 6 4 6 5 3 5 4 7 3 1 5 5 4 7 2 5 6 6 6 7 4 5 7 10 12 15 15 15 15 16 17 17 17 17 17 16 16 15 15 16 17 16
7 7 5 4 3 4 6 8 8 9 10 13 14 13 11 10 8 2 5 6 6 7 7 6 8 8 9 6 6 6 5 5 5 5 5 6 6 5 5 4 3 2 1 4 1 7 1 3 4 6 6 5 5 7 9 11 13 14 14 14 15 15 15 15 15 15 16 15 15 15 15 15 15 15
7 7 7 6 4 5 11 9 8 10 10 12 15 15 14 13 12 11 8 4 6 7 7 8 7 8 5 5 7 9 7 6 7 5 5 5 5 4 5 5 2 2 4 4 3 5 2 3 3 5 7 4 4 6 7 11 11 12 13 13 13 13 13 13 13 14 14 14 15 16 17 17 16 13
7 8 9 7 5 4 7 8 10 9 9 9 8 8 7 7 9 11 11 10 5 4 6 6 7 4 3 5 4 5 5 7 7 7 7 5 5 5 5 4 5 4 3 5 2 2 4 2 3 5 5 2 4 4 6 7 9 9 10 11 10 10 11 12 12 13 14 15 16 17 16 15 14 12
5 5 5 7 7 7 6 7 11 11 9 9 7 8 8 7 7 7 8 7 5 5 5 4 5 4 3 4 4 3 3 4 4 5 6 7 6 4 1 1 1 2 2 2 2 4 3 1 2 4 5 5 5 5 6 7 5 6 7 8 8 9 10 11 11 12 12 13 13 12 9 9 10 12
5 5 7 7 6 6 7 9 13 12 10 10 11 9 7 7 7 8 7 11 9 8 7 5 5 5 6 6 4 3 3 6 7 7 6 5 4 3 1 3 2 1 2 1 2 1 3 1 1 4 3 2 4 5 6 7 8 9 9 9 9 9 9 9 9 9 9 10 8 7 8 9 10 11
5 5 5 7 8 7 7 9 12 14 13 10 10 9 8 6 7 7 6 12 13 15 16 15 14 13 14 14 14 14 11 6 4 5 7 4 2 4 3 2 2 1 2 1 1 0 4 1 1 4 4 4 6 6 5 3 4 4 2 5 7 8 8 8 8 8 9 8 8 10 11 13 12 12
6 7 9 6 8 9 8 12 13 14 13 10 9 10 10 9 9 6 4 5 8 13 15 15 14 14 14 15 17 16 15 14 8 3 6 2 3 4 2 0 2 5 5 3 1 1 3 3 1 3 3 4 2 3 3 3 3 3 1 4 5 5 3 5 6 6 7 8 9 11 14 15 14 9
5 6 8 10 6 8 12 14 13 12 12 10 10 10 10 10 9 6 5 6 7 6 8 8 10 11 10 10 9 10 15 14 10 7 5 2 5 5 3 2 2 3 1 1 2 3 2 3 3 1 4 2 3 1 3 4 5 5 4 5 5 8 7 4 3 5 6 8 10 13 15 15 13 5
5 6 6 9 11 12 13 13 12 10 11 11 8 7 8 10 9 3 5 5 6 7 8 7 7 7 7 7 8 8 8 9 8 8 6 5 4 5 3 2 1 2 3 1 3 3 3 2 4 1 2 6 2 3 5 6 4 4 4 5 4 6 6 5 1 2 5 8 11 13 15 15 12 7
6 5 6 5 10 14 15 15 15 14 12 10 7 6 7 5 7 6 7 7 8 8 8 7 7 6 6 6 5 5 5 5 5 5 5 4 3 3 3 2 1 3 4 2 6 3 2 3 5 4 3 2 3 5 1 3 4 3 3 3 4 4 4 3 2 1 2 7 9 12 12 13 12 8
6 6 5 6 9 15 15 15 15 15 14 14 11 9 13 14 13 9 7 6 6 6 6 6 6 6 6 5 6 6 6 5 5 5 4 4 3 2 0 1 2 2 3 3 8 3 2 3 3 6 5 5 5 4 6 5 2 3 2 1 1 2 2 3 2 1 0 3 4 7 7 11 10 10
8 6 7 8 13 16 16 15 15 15 16 13 10 14 14 14 13 11 7 7 7 7 6 7 7 6 5 6 6 5 5 5 5 4 4 4 3 3 2 2 3 4 4 4 3 2 0 2 3 3 4 4 5 5 4 3 4 3 4 3 3 2 1 1 2 2 1 3 5 5 6 8 9 9
7 8 8 9 16 17 16 16 15 14 12 12 15 15 14 12 10 8 8 7 7 7 7 7 6 5 4 4 4 4 3 3 4 2 3 3 3 4 4 4 2 2 1 2 3 2 0 1 2 2 2 3 3 4 5 2 2 3 5 5 3 2 2 1 2 2 2 3 4 5 6 6 4 4
9 11 14 15 16 18 17 16 15 13 12 14 14 15 13 10 6 6 6 5 6 6 6 5 5 4 4 3 3 2 2 1 2 1 3 2 3 3 2 2 4 5 4 3 4 3 1 1 2 2 1 1 1 2 2 3 2 3 4 6 5 4 3 2 2 3 3 3 4 6 7 6 6 4
14 14 15 15 14 13 12 9 8 8 10 14 15 15 13 8 7 5 5 4 6 6 5 5 5 4 2 3 2 2 2 5 6 5 4 4 5 5 5 3 4 3 4 3 3 3 2 2 2 3 2 2 1 2 3 3 3 3 4 4 5 5 0 1 1 1 3 4 5 5 4 3 5 6
10 12 12 11 13 12 15 13 10 10 9 10 9 9 9 8 7 6 5 5 5 5 5 5 4 3 3 2 4 5 5 6 5 5 3 3 4 4 2 4 5 4 4 3 3 3 3 3 2 2 4 3 1 1 2 1 2 3 4 4 3 5 3 2 2 3 3 3 4 4 3 2 3 4
7 8 9 10 7 8 9 8 7 8 8 8 8 6 6 7 7 7 8 7 6 4 4 4 4 4 5 5 4 4 5 5 5 5 4 4 4 5 3 4 4 4 4 5 5 5 5 3 2 1 1 2 3 4 2 1 2 4 5 4 4 4 3 4 2 2 3 3 3 4 3 1 2 3
7 8 8 7 8 8 8 7 7 7 7 8 7 6 6 5 5 4 4 5 4 4 5 6 5 5 5 5 4 4 5 5 5 5 4 4 3 2 4 6 3 4 5 6 7 7 6 6 4 1 1 2 3 2 4 5 5 5 4 5 5 5 5 3 2 1 3 4 3 2 2 2 2 2
7 6 7 6 7 6 6 5 5 5 5 5 6 6 6 6 5 5 5 5 5 6 6 5 5 5 4 5 4 4 4 3 4 4 4 4 4 4 5 5 5 4 4 4 5 7 7 7 5 2 2 2 2 4 4 4 4 5 5 4 4 5 5 5 4 1 1 1 2 2 1 1 2 2
6 6 7 6 5 5 5 4 4 4 5 5 6 5 5 5 6 6 6 4 4 5 5 5 5 4 4 4 3 4 3 4 4 4 4 4 5 5 4 4 4 5 5 5 6 6 5 6 6 6 4 4 2 2 5 5 5 6 4 4 4 3 4 4 3 3 2 2 1 1 1 2 1 0
5 5 6 6 5 4 5 4 4 4 5 5 5 4 6 5 4 5 5 3 5 4 5 5 4 4 3 3 4 4 3 3 4 5 4 5 4 4 4 5 5 5 5 5 5 5 5 5 5 5 5 5 4 3 2 5 6 5 5 4 4 3 3 3 4 4 3 2 2 2 1 0 1 1
6 4 5 5 5 5 5 3 4 4 4 5 5 4 4 4 4 5 4 3 5 4 4 4 4 3 3 3 3 4 5 5 4 4 5 6 5 6 4 3 4 3 2 2 2 3 4 6 6 5 4 3 4 4 4 1 3 3 5 4 3 2 2 2 4 5 4 3 3 4 2 1 2 2
6 5 6 5 5 5 5 5 5 4 4 4 4 5 6 5 4 4 2 4 4 4 3 4 3 4 3 2 3 4 5 5 5 6 4 4 4 4 4 2 2 2 3 2 3 3 2 3 4 5 5 5 5 6 7 4 2 3 5 3 2 2 2 2 2 3 3 2 2 2 2 1 2 2
5 5 5 5 5 5 5 3 3 4 4 5 4 4 4 4 4 3 4 4 4 3 3 4 4 3 4 4 4 4 3 4 5 5 4 3 3 3 2 3 3 3 4 4 5 4 4 4 3 3 3 3 4 4 3 4 4 3 3 5 3 2 2 1 2 1 2 2 2 0 1 0 1 1
5 5 5 5 5 4 4 4 4 4 5 5 4 4 4 4 3 3 3 3 4 3 4 4 5 5 4 3 3 3 4 4 4 2 2 1 1 1 1 1 2 3 3 4 5 6 4 4 4 3 3 4 4 3 3 4 4 3 2 1 4 3 1 1 2 2 2 2 2 1 1 0 1 1
5 6 5 5 5 4 5 4 4 5 5 4 5 4 4 4 4 3 3 3 3 4 4 4 4 4 3 2 3 3 3 2 1 1 1 1 1 1 3 3 3 3 3 3 3 4 5 4 6 6 6 5 4 2 2 1 1 2 2 2 3 5 5 4 1 1 0 0 1 1 2 2 1 2
5 5 4 4 5 4 4 5 5 5 5 4 3 5 5 4 4 5 5 3 5 4 3 3 2 2 2 1 1 2 3 3 3 3 1 3 3 4 3 2 2 2 2 3 4 4 6 5 5 4 3 1 0 1 2 1 4 4 3 2 2 2 3 5 4 2 2 1 0 1 1 0 0 1
5 5 4 4 4 4 5 5 5 5 3 4 3 3 4 4 3 3 3 3 3 2 2 1 1 0 0 0 1 1 2 2 1 1 2 2 3 3 2 2 1 2 2 3 4 3 4 3 3 2 1 0 0 0 3 2 2 2 2 2 2 2 1 4 4 3 2 2 2 1 0 1 1 2
4 5 4 4 4 5 5 5 5 4 4 3 3 3 3 3 4 3 2 2 2 2 1 1 0 1 1 1 2 2 2 1 1 2 3 2 1 1 1 2 2 2 1 2 3 3 2 2 2 1 1 2 1 1 2 1 2 2 1 1 1 2 2 2 0 2 2 3 3 2 2 5 5 3
3 4 3 3 3 3 3 3 3 4 3 3 3 3 3 3 3 2 2 2 2 3 2 2 1 1 1 1 2 3 2 1 2 1 1 0 0 0 1 1 2 2 2 2 3 3 3 3 2 1 1 1 1 1 1 1 1 2 2 2 3 2 1 2 2 2 2 1 1 3 4 3 2 1
Wind_Direction
154 186 194 192 190 186 174 178 180 172 160 170 173 176 172 173 155 164 195 227 217 221 190 182 200 179 166 165 170 166 189 181 180 174 184 181 190 190 180 183 185 189 191 188 177 166 162 160 164 172 176 175 176 179 172 175 182 189 198 201 188 171 149 128 109 99 161 151 125 118 122 126 122 123
169 177 194 197 194 171 170 184 179 172 172 169 182 189 190 166 163 157 177 220 203 206 218 210 161 184 179 163 165 176 185 190 183 181 189 192 199 204 198 194 197 199 198 195 187 182 182 184 186 193 192 196 193 191 194 196 211 218 229 232 213 195 190 181 198 213 223 152 142 153 160 164 175 183
172 181 191 197 194 166 180 177 172 176 170 178 179 191 173 195 169 164 161 182 239 177 190 220 203 166 177 170 156 171 181 192 189 187 195 203 210 211 210 209 209 212 210 203 197 196 198 200 203 207 206 205 205 204 210 222 232 238 240 241 228 213 214 204 213 223 227 213 205 209 197 214 224 209
180 183 190 194 191 168 160 169 174 175 182 175 176 180 183 182 167 157 158 180 203 208 202 185 189 163 156 166 168 177 185 192 198 186 199 201 216 221 225 221 224 224 222 216 208 208 207 208 214 217 219 219 217 216 221 227 232 233 235 234 228 224 225 222 216 233 237 228 222 228 214 227 236 235
175 183 193 193 192 168 167 172 168 178 174 170 180 175 170 174 162 162 168 189 207 345 224 162 181 157 144 176 188 171 182 190 195 199 199 200 213 224 226 230 230 234 233 228 221 220 219 216 218 221 222 226 225 224 227 231 232 232 229 228 224 220 220 218 216 225 240 238 223 217 207 216 223 235
178 180 192 192 182 182 172 163 171 175 166 172 167 172 179 180 183 187 168 195 167 202 181 160 72 148 183 174 185 188 183 195 182 199 202 204 213 223 230 232 239 235 238 237 232 228 226 226 227 230 229 228 229 230 234 236 240 240 237 231 228 224 220 218 216 215 222 238 225 205 202 211 217 226
174 180 194 198 176 147 171 168 173 165 173 169 175 178 183 191 179 150 172 145 193 181 219 188 165 180 182 196 182 201 203 178 185 195 206 206 207 221 221 236 243 243 241 240 241 237 234 232 231 231 232 232 228 230 233 238 242 246 246 243 237 234 229 225 222 218 219 221 220 200 196 203 211 220
178 183 187 195 167 176 167 166 165 177 164 168 174 179 191 189 168 183 195 178 172 192 183 216 200 176 168 214 168 171 163 174 190 211 210 211 224 220 222 227 240 240 239 241 240 239 236 234 233 234 234 235 235 234 233 233 237 240 242 243 241 236 233 229 225 224 220 218 218 201 197 200 212 220
178 180 188 185 171 168 172 170 174 166 176 175 172 177 182 188 184 182 195 189 163 159 200 209 203 139 196 161 149 169 170 180 193 189 213 219 226 232 232 234 238 244 239 240 241 241 238 236 235 236 237 237 239 238 237 236 236 237 237 238 237 235 233 229 226 224 221 217 217 212 201 198 210 218
183 183 187 173 174 171 179 183 180 176 179 172 180 178 176 186 169 179 188 183 181 191 212 180 163 193 172 168 191 183 183 167 184 204 212 230 229 228 241 235 227 225 230 228 235 241 241 239 235 237 238 240 242 244 244 243 242 242 243 241 239 237 234 229 227 224 221 218 215 215 211 198 206 213
187 191 184 178 174 182 186 182 185 180 179 181 186 181 173 177 172 180 183 175 187 200 211 200 194 173 202 158 186 167 176 174 183 187 175 245 220 215 224 245 222 210 234 239 238 239 241 242 238 233 236 240 242 245 245 244 242 242 242 241 241 240 237 234 231 227 223 220 216 214 213 205 204 211
189 186 191 194 188 187 189 186 190 184 181 180 184 178 175 171 179 182 169 172 181 196 206 208 201 184 158 140 66 92 137 170 236 206 185 216 221 217 215 231 235 200 214 242 239 241 247 251 248 250 248 244 241 243 247 246 244 243 242 242 241 241 240 239 236 233 229 224 220 217 212 208 203 208
189 189 191 192 187 189 192 207 198 198 185 173 180 184 177 182 187 184 171 183 176 190 193 205 155 152 170 176 144 158 171 194 210 171 180 225 234 197 237 245 214 216 227 240 242 244 214 243 241 236 245 243 237 241 240 249 248 246 247 245 244 241 238 235 233 231 228 225 223 218 213 207 202 204
187 185 182 183 184 183 183 213 112 53 66 71 89 149 209 197 186 188 188 187 194 192 201 213 168 168 205 187 197 190 208 194 84 140 170 219 222 134 262 286 227 181 206 234 253 256 181 213 250 222 240 256 223 246 234 235 242 242 236 236 236 235 234 233 231 230 227 226 223 219 213 205 202 202
167 160 160 172 174 177 159 91 105 136 99 82 80 90 103 59 169 163 165 211 190 192 214 200 166 204 214 211 198 210 176 160 188 164 180 204 132 204 209 259 334 212 194 211 242 274 147 188 248 256 251 264 264 239 248 248 237 241 242 238 236 236 235 234 233 231 231 229 226 221 215 210 205 200
150 144 130 109 104 119 127 122 107 110 116 106 101 98 80 63 55 49 227 219 184 192 202 187 208 199 215 200 173 194 174 183 169 178 163 177 187 189 215 242 249 8 199 188 233 272 100 203 237 270 262 253 248 248 249 246 242 243 243 240 239 237 236 236 234 231 228 227 224 220 217 213 208 203
147 139 125 110 90 113 128 123 123 119 111 101 97 92 84 69 60 40 19 329 220 189 204 211 211 203 176 168 196 188 188 160 173 163 181 177 185 190 215 224 253 227 179 164 203 273 252 167 206 250 264 254 240 261 249 249 249 248 245 245 243 242 240 238 234 230 227 224 220 217 213 209 205 197
146 151 143 135 129 133 136 135 130 125 119 121 102 83 72 72 58 54 37 30 40 151 195 195 200 188 180 187 176 181 147 158 181 172 188 159 168 176 213 207 213 232 168 188 165 285 268 177 214 252 268 251 285 270 287 277 267 261 260 256 254 249 243 239 234 228 224 219 219 218 214 207 199 184
114 121 119 129 138 147 152 152 145 129 123 110 103 88 77 70 68 63 49 29 20 59 79 72 73 95 88 84 92 111 160 151 140 163 157 164 168 169 140 25 2 292 232 174 128 249 265 77 257 262 291 339 319 302 301 300 305 285 278 277 269 259 250 243 237 232 229 227 228 229 225 200 179 167
86 94 117 128 129 145 149 153 142 130 123 110 105 98 87 77 66 55 49 58 48 56 66 70 73 67 67 65 63 38 91 117 111 99 91 76 80 114 99 247 333 349 95 262 168 207 283 1 324 290 309 303 287 310 294 344 352 343 328 315 302 287 274 263 252 245 240 237 234 218 192 175 161 153
90 93 113 122 131 135 129 143 136 132 121 109 110 112 104 90 76 65 47 60 67 76 80 82 82 79 74 69 62 56 48 36 28 79 66 33 21 77 168 264 356 264 51 63 45 102 293 315 339 311 307 333 305 298 315 36 11 354 310 281 276 270 266 260 255 245 236 223 201 184 170 159 158 156
71 72 88 116 127 132 129 142 138 137 124 119 122 121 121 111 96 85 74 90 83 86 85 81 77 71 65 63 60 53 49 46 35 62 108 167 109 91 47 114 349 315 354 6 73 310 261 328 346 295 289 307 264 295 321 296 253 234 146 63 49 20 320 284 258 241 223 203 187 173 163 166 161 155
67 65 53 58 77 114 127 128 132 135 129 127 135 133 121 119 114 132 147 117 110 96 79 58 64 53 52 54 60 55 51 50 52 56 89 124 80 96 81 76 12 337 331 340 33 338 299 330 296 335 322 290 285 280 265 321 344 8 4 357 14 23 10 349 264 227 208 192 179 172 172 167 161 151
63 51 56 55 60 85 96 101 105 110 119 124 127 126 120 124 122 142 106 88 101 93 89 88 72 71 57 55 51 47 49 46 42 43 36 42 73 105 117 130 169 189 260 102 347 348 292 264 297 42 283 301 309 327 359 343 347 5 1 353 349 358 4 16 13 233 198 184 180 179 177 172 167 150
86 69 61 61 68 80 86 91 92 89 83 88 90 86 94 84 118 117 101 92 88 89 87 80 75 71 66 63 64 63 58 57 53 57 51 52 62 97 117 137 173 240 261 4 11 23 317 328 308 314 301 252 292 324 321 299 317 7 3 358 337 343 347 358 356 343 199 192 189 187 183 177 172 165
80 77 73 65 75 83 85 86 90 91 91 93 87 85 98 103 106 102 96 100 93 85 84 84 75 70 63 59 54 46 43 31 24 30 27 32 26 15 224 198 211 205 264 78 40 35 338 309 323 325 318 318 315 351 322 314 295 321 325 330 324 309 330 323 332 324 236 200 200 196 189 185 182 180
102 92 86 83 81 81 81 80 82 86 89 84 90 98 96 100 103 103 97 95 88 80 74 71 69 59 53 53 45 34 24 14 7 14 16 0 359 345 342 316 271 268 309 347 34 25 190 278 328 332 316 321 316 319 310 318 324 323 312 346 326 311 316 303 286 296 240 210 216 182 174 188 194 187
87 90 84 92 86 78 76 76 75 74 79 99 102 99 99 94 91 95 97 93 93 94 85 78 74 63 52 58 50 34 10 17 352 357 9 353 354 339 339 318 300 297 299 357 11 44 291 261 289 259 264 292 320 320 319 286 261 297 325 319 307 308 309 277 275 275 255 238 219 197 198 194 187 167
80 92 95 89 87 89 83 77 78 76 78 84 91 95 98 97 87 89 94 105 104 90 93 95 92 81 64 65 54 21 24 29 23 356 346 352 0 349 33 59 43 27 29 9 14 19 347 307 288 309 271 226 274 288 295 300 301 320 347 330 329 325 306 276 274 273 264 233 224 211 202 188 167 142
79 80 79 78 74 75 82 78 77 80 79 76 75 76 77 75 77 72 91 93 93 95 95 85 77 69 53 53 19 39 54 50 32 10 356 4 11 5 3 43 68 47 27 17 2 358 356 357 338 326 327 11 350 344 344 334 329 334 324 324 305 287 78 4 285 261 245 234 224 213 199 151 170 168
70 71 74 81 84 84 78 77 76 77 74 70 68 68 70 73 73 71 63 75 82 91 94 92 85 72 57 67 43 32 32 39 26 7 358 23 16 0 7 50 19 19 6 8 22 19 3 347 349 331 20 354 275 31 323 268 294 336 327 320 332 322 323 344 296 269 240 232 226 213 196 140 157 188
73 76 72 67 64 71 68 65 60 60 64 66 66 60 61 68 71 80 89 80 77 69 85 91 85 59 49 49 38 42 45 41 23 6 22 24 16 11 348 51 19 342 345 16 10 9 13 4 338 334 40 39 14 345 323 335 12 344 322 319 316 306 312 299 302 253 203 187 206 209 187 146 146 148
71 72 67 66 63 63 71 65 66 66 65 57 52 54 54 63 58 49 42 61 56 59 63 58 55 58 54 56 43 42 48 33 21 5 26 25 28 28 54 73 48 18 2 357 357 356 355 348 339 292 40 44 41 12 16 13 358 350 330 334 334 338 351 335 291 272 165 181 203 176 134 130 148 183
91 81 86 70 74 72 75 80 77 78 81 84 74 61 57 64 64 63 59 59 57 51 60 63 59 49 56 53 44 47 53 39 42 28 32 26 13 43 32 44 34 21 18 8 6 356 345 348 351 44 39 41 87 44 39 44 4 353 346 344 356 4 0 2 9 39 120 43 134 123 147 258 262 221
77 92 89 83 78 79 82 88 86 86 84 82 84 72 64 54 55 56 53 42 58 62 69 62 62 58 55 63 49 62 43 48 35 41 38 46 38 44 34 43 26 17 13 15 6 360 353 356 357 4 20 33 69 94 60 46 29 358 352 16 13 13 10 4 27 49 48 20 353 112 73 22 31 75
74 82 97 95 91 98 90 80 79 76 82 76 78 84 73 55 42 56 58 31 55 63 60 62 60 60 65 67 66 57 49 48 51 33 31 32 31 30 38 42 34 24 21 23 0 355 8 17 18 31 27 5 12 1 47 61 60 21 14 4 10 9 2 9 16 26 21 16 29 40 33 2 350 15
91 82 85 90 85 83 87 78 79 76 74 79 73 71 80 71 58 57 53 48 67 66 76 82 77 72 66 66 69 61 53 51 43 38 38 36 41 41 34 21 19 5 328 339 344 340 15 27 30 33 20 18 16 351 330 335 351 10 26 2 355 356 326 323 32 46 32 14 25 17 10 8 36 344
94 84 83 74 75 73 83 86 88 80 68 65 76 76 78 85 78 70 70 75 75 77 72 75 72 71 67 54 64 61 61 57 58 48 38 25 27 26 26 5 354 350 336 338 359 8 356 14 29 24 26 20 0 351 336 338 344 35 47 357 351 335 318 17 34 19 10 43 47 359 9 54 10 335
87 94 93 95 81 88 88 78 89 90 89 89 84 89 93 86 84 79 68 68 71 74 76 75 67 52 67 65 69 71 61 51 46 43 34 25 28 30 9 3 352 351 352 358 356 4 358 6 13 15 13 352 342 317 307 298 314 323 354 342 312 325 7 357 7 24 10 9 33 51 119 151 215 304
65 70 82 92 87 86 85 88 83 85 91 89 90 86 94 93 89 87 81 77 75 70 76 76 78 71 64 56 61 72 67 61 56 41 27 357 341 1 17 4 18 358 359 4 353 342 344 338 337 337 305 263 255 284 297 283 281 278 283 320 3 0 11 2 36 24 15 2 333 340 1 7 36 357
84 79 62 70 80 78 91 85 95 95 92 90 89 82 78 90 86 77 82 79 79 74 65 16 14 31 63 61 44 44 66 59 54 38 316 318 1 12 14 8 14 20 4 338 330 318 314 314 309 299 277 276 282 268 236 260 306 331 342 345 6 14 4 351 70 121 49 111 52 24 25 18 353 338
77 76 60 65 89 93 99 102 100 95 90 87 89 99 95 85 94 102 89 72 52 62 74 59 10 339 349 22 56 52 55 51 330 321 298 322 355 4 20 19 6 351 353 329 320 305 294 308 307 300 280 240 260 350 5 335 335 338 333 321 336 12 28 17 25 29 152 153 74 17 352 352 341 4
76 85 84 79 81 93 94 94 88 92 94 94 90 92 97 96 92 88 83 83 67 64 68 86 108 124 354 253 131 142 118 68 151 288 359 28 50 18 353 343 319 296 288 290 286 281 293 301 309 318 295 42 35 345 9 340 331 334 336 339 352 334 4 33 37 53 78 77 86 87 350 350 329 357
75 81 74 74 87 86 87 89 89 91 101 97 104 100 96 101 88 75 84 102 109 106 189 75 79 127 160 116 170 172 121 110 127 51 30 19 20 236 283 299 291 289 280 300 316 324 330 333 346 333 358 13 335 346 8 331 10 15 6 323 326 358 6 356 88 134 122 85 58 25 286 252 262 293
63 71 82 73 78 78 83 88 95 97 92 102 94 96 94 86 95 94 89 96 91 117 124 137 101 65 73 117 87 59 35 81 75 54 59 53 56 278 263 283 313 320 346 355 332 334 339 340 357 351 25 22 15 1 336 312 341 352 14 15 26 16 6 358 19 10 13 6 63 356 356 355 252 33